Regional Weather Roundup
Issued by NWS

Home | Current Version | Previous Version | Text Only | Print | Product List | Glossary On
Versions: 1 2 3 4 5 6 7 8 9 10 11 12 13 14 15 16 17 18 19 20 21 22 23 24 25 26 27 28 29 30 31 32 33 34 35 36 37 38 39 40 41 42 43 44 45 46 47 48 49 50
000
ASUS45 KTFX 232010
RWRMT
MONTANA REGIONAL WEATHER ROUNDUP
NATIONAL WEATHER SERVICE GREAT FALLS MT
100 PM MST THU FEB 23 2017

NOTE: "FAIR" INDICATES FEW OR NO CLOUDS BELOW 12000 FEET WITH NO
SIGNIFICANT WEATHER AND/OR OBSTRUCTIONS TO VISIBILITY.

MTZ001>007-043-232100-
WEST OF THE DIVIDE

CITY           SKY/WX    TMP DP  RH WIND       PRES   REMARKS
KALISPELL      PTSUNNY   35  22  58 NE6       29.96F WCI  30
MISSOULA       MOSUNNY   35  22  58 N9        29.93F WCI  28
BUTTE          CLOUDY    28  13  53 N3        29.80F
MULLAN PASS    CLOUDY    21  18  88 NW5       29.85F FOG
ANACONDA         N/A     28  12  50 N14G21    29.83F WCI  17
DEER LODGE       N/A     28  14  54 N13       29.88F WCI  18
EUREKA           N/A     30  21  69 CALM      30.02F
HAMILTON         N/A     36  18  48 N9G20     29.88F WCI  29
LIBBY            N/A     34  21  60 CALM      30.01F
PLAINS           N/A     38  24  57 CALM      29.99F
RONAN            N/A     31  22  69 W2        30.00F
$$

MTZ008-052>055-232100-
SOUTHWEST MONTANA

CITY           SKY/WX    TMP DP  RH WIND       PRES   REMARKS
BOZEMAN        CLOUDY    36  23  59 NE7       29.83S WCI  30
DILLON         CLOUDY    30  15  53 NE18      29.75F WCI  18
W YELLOWSTONE  CLOUDY    25   9  50 N10G18    29.69F WCI  15
ENNIS          CLOUDY    30  19  64 NW22G36   29.79S WCI  17
$$

MTZ009-010-012-014-046-048-049-054-232100-
EAST SLOPES AND CENTRAL MONTANA

CITY           SKY/WX    TMP DP  RH WIND       PRES   REMARKS
CUT BANK       CLOUDY    24  18  77 VRB3      29.99S
GREAT FALLS    CLOUDY    27  22  81 N10       29.97F WCI  17
MALMSTROM AFB  PTSUNNY   27  24  88 N10       29.98F WCI  17
HELENA         CLOUDY    33  20  58 N15       29.88F WCI  23
AUGUSTA        CLOUDY    22  21  96 N12       29.95S WCI  10
BOWMANS CRNR   FLURRIES  22  21  98 NE10      29.92F WCI  11
CHOTEAU          N/A     23  21  93 N12       29.99F WCI  12
CONRAD           N/A     25  22  88 N1        30.01F
POWER          CLOUDY    24  23  96 NE9       29.97F WCI  14
RAYNESFORD     CLOUDY    27  23  82 NW7       29.94F WCI  20
ULM            CLOUDY    26  23  89 MISG      29.96F
$$

MTZ011-013-016-021-045-047-050-051-232100-
NORTH CENTRAL MONTANA

CITY           SKY/WX    TMP DP  RH WIND       PRES   REMARKS
HAVRE          CLOUDY    27  23  85 NE13      30.05F WCI  16
LEWISTOWN      CLOUDY    25  18  74 E9        29.94S WCI  15
N BAR RANCH    MIX PCPN  23  18  80 E5        29.96S
CHINOOK          N/A     28  23  80 NE5       30.07S
DENTON         PTSUNNY   27  22  79 NE12      29.94S WCI  17
FORT BENTON      N/A     30  23  74 MISG      30.02F
GEYSER         CLOUDY    26  21  83 NE10      29.94F WCI  15
GRASS RANGE    FLURRIES  26  23  89 NE10      29.94S WCI  15
JUDITH GAP     FLURRIES  22  20  91 N13       29.90R WCI  10
ROY            FLURRIES  27  24  91 MISG      29.97S
STANFORD       FLURRIES  23  21  90 N5        29.93S
WINIFRED       FLURRIES  26  24  93 NE13      29.96F WCI  15
$$

MTZ017>020-022>027-061-062-232100-
NORTHEAST MONTANA

CITY           SKY/WX    TMP DP  RH WIND       PRES   REMARKS
GLASGOW        LGT SNOW  29  23  78 E14       30.05F WCI  18
JORDAN           N/A     32  26  78 NE8       30.01S WCI  25
SIDNEY         CLOUDY    29  26  89 NE9       30.06F WCI  20
WOLF POINT     CLOUDY    28  21  75 E13       30.09S WCI  17
PLENTYWOOD       N/A     25  12  58 NE8       30.09R WCI  16
POPLAR           N/A     27  19  74 NE15      30.09S WCI  15
$$

MTZ028>42-056>058-232100-
SOUTHCENTRAL AND SOUTHEAST MONTANA

CITY           SKY/WX    TMP DP  RH WIND       PRES   REMARKS
BAKER          LGT SNOW  29  24  82 NE12      29.97S WCI  19
BILLINGS       CLOUDY    27  21  78 NE13      29.94S WCI  16
LIVINGSTON     LGT SNOW  27  22  81 E21       29.84F WCI  13
MILES CITY     CLOUDY    32  24  72 NE13      29.98F WCI  22
BIG TIMBER     CLOUDY    25  23  93 E14G21    29.92S FOG     WCI  13
EKALAKA          N/A     27  21  77 E10       29.91R WCI  17
FORSYTH          N/A     30  25  80 NE12      29.97F WCI  21
HARLOWTON      FLURRIES  23  19  84 E14       29.92R WCI  11
LAUREL           N/A     27  20  75 CALM      29.92S
ROUNDUP          N/A     27  17  65 N10       29.89S WCI  17
$$

REGIONAL REPORTS...DAKOTAS

CITY           SKY/WX    TMP DP  RH WIND       PRES   REMARKS
WILLISTON      CLOUDY    27  21  78 E13       30.07S WCI  16
MINOT          SUNNY     26  17  68 NW13      30.07F WCI  15
DICKINSON      FOG       25  24  96 NE16      29.98R VSB 3/4 WCI  12
BEACH            N/A    N/A N/A N/A MISG        N/A
CROSBY           N/A     25  14  63 N10       30.11F WCI  15
TIOGA          CLOUDY    23  14  68 NE13      30.07S WCI  11
WATFORD CITY   MIX PCPN  25  23  93 NE8       30.06S WCI  16
BISMARCK       CLOUDY    32  25  75 NE8       30.04R WCI  25
GRAND FORKS    CLOUDY    26  14  60 N14       30.07S WCI  14
FARGO          CLOUDY    31  22  69 N15       30.03R WCI  20
BUFFALO SD       N/A     31  22  69 NE15      29.87S WCI  20
RAPID CITY     LGT SNOW  26  23  88 NE12      29.87F VSB 1   WCI  16
$$

REGIONAL REPORTS...WYOMING/IDAHO/WASHINGTON

CITY           SKY/WX    TMP DP  RH WIND       PRES   REMARKS
GILLETTE       CLOUDY    28  24  85 NE16      29.81S FOG     WCI  16
SHERIDAN       CLOUDY    28  23  81 VRB7      29.87F WCI  21
BUFFALO WY     LGT SNOW  26  21  81 N15       29.82S VSB 3/4 WCI  14
CODY           CLOUDY    24  19  81 N17G25    29.80F WCI  11
YELLOWSTONE LA   N/A     19   7  59 VRB5      29.68R
IDAHO FALLS    LGT SNOW  26  25  96 SW17      29.72S VSB 3/4 WCI  13
SALMON         CLOUDY    34  18  51 N10       29.79F WCI  26
BOISE          LGT SNOW  33  25  72 NW26G32   29.90F WCI  20
SPOKANE        PTSUNNY   28  25  88 SE5       30.07F
$$

REGIONAL REPORTS...ALBERTA

CITY           SKY/WX    TMP DP  RH WIND       PRES   REMARKS
EDMONTON       PTSUNNY   25  14  63 CALM      30.04F
CALGARY        PTSUNNY   27  18  69 S10       29.97F WCI  17
LETHBRIDGE     PTSUNNY   27  18  69 S6        30.03F WCI  20
MEDICINE HAT   MOSUNNY   25  16  68 SE5       30.09F
WATERTON GATE    N/A     21  16  79 NE9         N/A  WCI  11
MILK RIVER       N/A     27  19  74 E5          N/A
$$

REGIONAL REPORTS...SASKATCHEWAN

CITY           SKY/WX    TMP DP  RH WIND       PRES   REMARKS
SWIFT CURRENT  MOSUNNY   25  12  58 NW8       30.05F WCI  16
REGINA         FLURRIES  28  18  64 NW14G21   30.07F WCI  17
SASKATOON      PTSUNNY   23  10  58 NW12      30.11F WCI  12
CYPRESS HILLS    N/A     19  14  79 E2          N/A
ROCKGLEN         N/A     21  19  93 NE7         N/A  WCI  13
ASSINIBOIA       N/A     25  14  63 N5          N/A
$$



USA.gov is the U.S. government's official web portal to all federal, state and local government web resources and services.